{"data":{"norad_id":63967,"intl_designator":"2025-099R","name":"STARLINK-34153","alt_names":[],"object_type":"PAYLOAD","status":"ACTIVE","operator":null,"country":"US","launch_date":"2025-05-13","launch_site_code":"AFETR","launch_vehicle":null,"mission":null,"orbit_class":"UNKNOWN","rcs_meters":null,"size_class":null,"mass_kg":null,"dimensions":null,"purposes":["comms"],"wikipedia_slug":null,"has_3d_model":false,"image_url":null,"decayed_at":null,"tle_current":{"epoch":"2026-09-20T10:25:02.202528Z","epoch_age_seconds":152789,"freshness":"FRESH","line1":"1 63967U 25099R   26263.43405327  .00011573  00000+0  42937-3 0  9997","line2":"2 63967  43.0033 156.0809 0001663 266.1436  93.9225 15.27583199 77126","mean_motion":15.27583199,"eccentricity":0.0001663,"inclination_deg":43.0033,"raan_deg":156.0809,"arg_perigee_deg":266.1436,"mean_anomaly_deg":93.9225,"bstar":0.00042937,"rev_number":7712,"period_min":94.266551304221,"perigee_km":481.89850344474,"apogee_km":484.18053075433,"semimajor_km":6861.1765170995,"source":"CELESTRAK","updated_at":"2026-09-21T09:00:35.176856Z"}}}